When you browse on this site, cookies collect data to enhance your experience and personalize the content and advertising you see.
Visit our Privacy Policy to learn more. By continuing to use the site, you agree to this use of cookies and data.
  • în România
  • Lista ţărilor
  • Pe 7 zile
  • Temperatura apei
  • Meteo pe hartă
  • Widget-uri
  • user-avatar
    Intrare

    Meteo pe oră la Guadalahara

    Astăzi, 22 Noiembrie, Vineri

    Timp Temperatura Precipitaţii Vânt Presiune Umiditate
    00:00 +6°C° 0 mm 2 m/s 692 mmHg 97%
    01:00 +6°C° 0 mm 2 m/s 692 mmHg 97%
    02:00 +7°C° 0 mm 3 m/s 691 mmHg 96%
    03:00 +7°C° 0 mm 3 m/s 691 mmHg 95%
    04:00 +7°C° 0.1 mm 3 m/s 690 mmHg 95%
    05:00 +6°C° 0.1 mm 4 m/s 690 mmHg 95%
    06:00 +6°C° 0.1 mm 4 m/s 689 mmHg 94%
    07:00 +6°C° 1.4 mm 5 m/s 689 mmHg 94%
    08:00 +7°C° 1.4 mm 6 m/s 688 mmHg 95%
    09:00 +6°C° 1.4 mm 7 m/s 688 mmHg 95%
    10:00 +8°C° 0.9 mm 7 m/s 687 mmHg 94%
    11:00 +8°C° 0.9 mm 7 m/s 686 mmHg 93%
    12:00 +7°C° 0.9 mm 8 m/s 685 mmHg 93%
    13:00 +9°C° 1.6 mm 8 m/s 683 mmHg 93%
    14:00 +9°C° 1.6 mm 8 m/s 682 mmHg 94%
    15:00 +8°C° 1.6 mm 9 m/s 681 mmHg 94%
    16:00 +9°C° 0.3 mm 8 m/s 681 mmHg 93%
    17:00 +9°C° 0.3 mm 8 m/s 682 mmHg 91%
    18:00 +9°C° 0.3 mm 7 m/s 682 mmHg 90%
    19:00 +8°C° 0.2 mm 7 m/s 682 mmHg 89%
    20:00 +8°C° 0.2 mm 7 m/s 683 mmHg 88%
    21:00 +7°C° 0.2 mm 6 m/s 683 mmHg 87%
    22:00 +6°C° 0.3 mm 7 m/s 683 mmHg 87%
    23:00 +6°C° 0.3 mm 7 m/s 683 mmHg 87%

    Mâine, 23 Noiembrie, Sâmbătă

    Timp Temperatura Precipitaţii Vânt Presiune Umiditate
    00:00 +5°C° 0.3 mm 7 m/s 682 mmHg 87%
    01:00 +5°C° 0.5 mm 8 m/s 682 mmHg 87%
    02:00 +5°C° 0.5 mm 8 m/s 683 mmHg 86%
    03:00 +5°C° 0.5 mm 8 m/s 683 mmHg 85%
    04:00 +5°C° 0.1 mm 8 m/s 683 mmHg 81%
    05:00 +4°C° 0.1 mm 8 m/s 684 mmHg 77%
    06:00 +4°C° 0.1 mm 7 m/s 685 mmHg 73%
    07:00 +4°C° 0 mm 7 m/s 686 mmHg 71%
    08:00 +4°C° 0 mm 7 m/s 687 mmHg 68%
    09:00 +4°C° 0 mm 7 m/s 689 mmHg 65%
    10:00 +5°C° 0 mm 7 m/s 689 mmHg 62%
    11:00 +6°C° 0 mm 7 m/s 689 mmHg 58%
    12:00 +8°C° 0 mm 7 m/s 690 mmHg 55%
    13:00 +8°C° 0 mm 7 m/s 690 mmHg 55%
    14:00 +8°C° 0 mm 7 m/s 690 mmHg 54%
    15:00 +9°C° 0 mm 8 m/s 691 mmHg 54%
    16:00 +6°C° 0 mm 7 m/s 691 mmHg 61%
    17:00 +5°C° 0 mm 6 m/s 692 mmHg 67%
    18:00 +5°C° 0 mm 5 m/s 692 mmHg 74%
    19:00 +5°C° 0 mm 4 m/s 693 mmHg 77%
    20:00 +5°C° 0 mm 4 m/s 694 mmHg 79%
    21:00 +4°C° 0 mm 4 m/s 694 mmHg 82%
    22:00 +4°C° 0 mm 3 m/s 695 mmHg 82%
    23:00 +4°C° 0 mm 3 m/s 695 mmHg 82%

    Poimâine, 24 Noiembrie, Duminică

    Timp Temperatura Precipitaţii Vânt Presiune Umiditate
    00:00 +4°C° 0 mm 3 m/s 696 mmHg 82%
    01:00 +4°C° 0 mm 3 m/s 696 mmHg 82%
    02:00 +5°C° 0 mm 2 m/s 696 mmHg 82%
    03:00 +5°C° 0 mm 2 m/s 697 mmHg 82%
    04:00 +4°C° 0 mm 2 m/s 697 mmHg 83%
    05:00 +5°C° 0 mm 1 m/s 697 mmHg 85%
    06:00 +4°C° 0 mm 1 m/s 698 mmHg 86%
    07:00 +5°C° 0 mm 1 m/s 698 mmHg 83%
    08:00 +6°C° 0 mm 1 m/s 699 mmHg 79%
    09:00 +7°C° 0 mm 1 m/s 700 mmHg 76%
    10:00 +8°C° 0 mm 1 m/s 700 mmHg 70%
    11:00 +8°C° 0 mm 2 m/s 699 mmHg 64%
    12:00 +9°C° 0 mm 2 m/s 699 mmHg 58%
    13:00 +9°C° 0 mm 3 m/s 699 mmHg 57%
    14:00 +10°C° 0 mm 3 m/s 699 mmHg 57%
    15:00 +10°C° 0 mm 3 m/s 699 mmHg 56%
    16:00 +9°C° 0 mm 3 m/s 699 mmHg 62%
    17:00 +7°C° 0 mm 3 m/s 699 mmHg 68%
    18:00 +5°C° 0 mm 3 m/s 699 mmHg 74%
    19:00 +6°C° 0 mm 2 m/s 699 mmHg 76%
    20:00 +6°C° 0 mm 2 m/s 699 mmHg 79%
    21:00 +5°C° 0 mm 2 m/s 699 mmHg 81%
    22:00 +5°C° 0 mm 2 m/s 699 mmHg 85%
    23:00 +5°C° 0 mm 2 m/s 699 mmHg 88%

    25 Noiembrie, Luni

    Timp Temperatura Precipitaţii Vânt Presiune Umiditate
    00:00 +6°C° 0 mm 1 m/s 699 mmHg 92%
    01:00 +6°C° 0 mm 1 m/s 699 mmHg 93%
    02:00 +6°C° 0 mm 1 m/s 699 mmHg 94%
    03:00 +6°C° 0 mm 1 m/s 699 mmHg 96%
    04:00 +6°C° 0 mm 1 m/s 699 mmHg 96%
    05:00 +7°C° 0 mm 1 m/s 699 mmHg 96%
    06:00 +7°C° 0 mm 1 m/s 699 mmHg 96%
    07:00 +8°C° 0 mm 1 m/s 699 mmHg 95%
    08:00 +8°C° 0 mm 1 m/s 699 mmHg 94%
    09:00 +8°C° 0 mm 1 m/s 700 mmHg 93%
    10:00 +8°C° 0 mm 2 m/s 700 mmHg 92%
    11:00 +9°C° 0 mm 2 m/s 700 mmHg 90%
    12:00 +10°C° 0 mm 2 m/s 699 mmHg 88%
    13:00 +10°C° 0 mm 3 m/s 699 mmHg 88%
    14:00 +11°C° 0 mm 3 m/s 699 mmHg 89%
    15:00 +11°C° 0 mm 3 m/s 699 mmHg 89%
    16:00 +11°C° 0 mm 3 m/s 699 mmHg 91%
    17:00 +12°C° 0 mm 2 m/s 699 mmHg 93%
    18:00 +10°C° 0 mm 2 m/s 699 mmHg 95%
    19:00 +10°C° 0 mm 2 m/s 700 mmHg 96%
    20:00 +10°C° 0 mm 2 m/s 700 mmHg 96%
    21:00 +9°C° 0 mm 2 m/s 700 mmHg 97%
    22:00 +9°C° 0 mm 2 m/s 700 mmHg 97%
    23:00 +9°C° 0 mm 2 m/s 700 mmHg 97%

    26 Noiembrie, Marţi

    Timp Temperatura Precipitaţii Vânt Presiune Umiditate
    00:00 +10°C° 0 mm 1 m/s 700 mmHg 97%
    01:00 +9°C° 0 mm 2 m/s 700 mmHg 97%
    02:00 +9°C° 0 mm 2 m/s 700 mmHg 97%
    03:00 +9°C° 0 mm 2 m/s 699 mmHg 97%
    04:00 +9°C° 0 mm 2 m/s 699 mmHg 96%
    05:00 +9°C° 0 mm 2 m/s 699 mmHg 96%
    06:00 +9°C° 0 mm 3 m/s 699 mmHg 95%
    07:00 +9°C° 0 mm 3 m/s 699 mmHg 94%
    08:00 +8°C° 0 mm 4 m/s 699 mmHg 92%
    09:00 +8°C° 0 mm 4 m/s 699 mmHg 91%
    10:00 +10°C° 0.1 mm 4 m/s 699 mmHg 91%
    11:00 +9°C° 0.1 mm 5 m/s 699 mmHg 90%
    12:00 +9°C° 0.1 mm 5 m/s 698 mmHg 90%
    13:00 +9°C° 0.1 mm 5 m/s 698 mmHg 90%
    14:00 +9°C° 0.1 mm 5 m/s 698 mmHg 89%
    15:00 +9°C° 0.1 mm 6 m/s 697 mmHg 88%
    16:00 +9°C° 0 mm 5 m/s 697 mmHg 90%
    17:00 +9°C° 0 mm 5 m/s 697 mmHg 92%
    18:00 +10°C° 0 mm 4 m/s 697 mmHg 94%
    19:00 +10°C° 0 mm 4 m/s 697 mmHg 94%
    20:00 +10°C° 0 mm 4 m/s 697 mmHg 95%
    21:00 +10°C° 0 mm 4 m/s 697 mmHg 95%
    22:00 +10°C° 0 mm 4 m/s 697 mmHg 96%
    23:00 +10°C° 0 mm 4 m/s 697 mmHg 96%

    27 Noiembrie, Miercuri

    Timp Temperatura Precipitaţii Vânt Presiune Umiditate
    00:00 +10°C° 0 mm 4 m/s 697 mmHg 97%
    01:00 +10°C° 0 mm 4 m/s 697 mmHg 96%
    02:00 +9°C° 0 mm 5 m/s 697 mmHg 96%
    03:00 +9°C° 0 mm 5 m/s 697 mmHg 96%
    04:00 +10°C° 0 mm 4 m/s 697 mmHg 95%
    05:00 +10°C° 0 mm 4 m/s 697 mmHg 95%
    06:00 +10°C° 0 mm 4 m/s 697 mmHg 94%
    07:00 +10°C° 0 mm 4 m/s 697 mmHg 93%
    08:00 +10°C° 0 mm 4 m/s 698 mmHg 92%
    09:00 +10°C° 0 mm 4 m/s 698 mmHg 91%
    10:00 +11°C° 0 mm 4 m/s 698 mmHg 83%
    11:00 +13°C° 0 mm 5 m/s 698 mmHg 75%
    12:00 +14°C° 0 mm 5 m/s 698 mmHg 68%
    13:00 +14°C° 0 mm 5 m/s 698 mmHg 67%
    14:00 +14°C° 0 mm 5 m/s 698 mmHg 67%
    15:00 +14°C° 0 mm 5 m/s 697 mmHg 66%
    16:00 +13°C° 0 mm 4 m/s 698 mmHg 73%
    17:00 +11°C° 0 mm 3 m/s 698 mmHg 79%
    18:00 +10°C° 0 mm 3 m/s 698 mmHg 86%
    19:00 +10°C° 0 mm 2 m/s 698 mmHg 88%
    20:00 +9°C° 0 mm 2 m/s 698 mmHg 89%
    21:00 +9°C° 0 mm 2 m/s 698 mmHg 91%
    22:00 +9°C° 0 mm 2 m/s 699 mmHg 92%
    23:00 +8°C° 0 mm 2 m/s 699 mmHg 93%
    Arată mai mult